Tulsa, OK

3:16 AM CDT on April 20, 2018 (GMT -0500)
Tulsa International

Weather History for KTUL - December, 2012

Change the Weather History Date:

Wednesday, December 5, 2012

  Actual Average Record
Temperature  
Mean Temperature 47 °F 42 °F  
Max Temperature 63 °F 52 °F 77 °F (1956)
Min Temperature 31 °F 32 °F 10 °F (1950)
Degree Days  
Heating Degree Days 18 23  
Month to date heating degree days 34 113  
Since 1 July heating degree days 628 749  
Moisture  
Dew Point 30 °F    
Average Humidity 55    
Maximum Humidity 85    
Minimum Humidity 25    
Precipitation  
Precipitation 0.00 in 0.09 in 1.14 in (1913)
Month to date precipitation 0.05 0.43  
Year to date precipitation 27.94 38.91  
Sea Level Pressure  
Sea Level Pressure 30.20 in    
Wind  
Wind Speed 6 mph (SSE)    
Max Wind Speed 16 mph    
Max Gust Speed 20 mph    
Visibility 10 miles    
Events      
T = Trace of Precipitation, MM = Missing Value Source: NWS Daily Summary

Daily Weather History Graph

Daily Weather History Graph

Search for Another Location

Airport or City:

Astronomy

Dec. 05, 2012 Rise Set
Actual Time 7:20 AM CST 5:08 PM CST
Civil Twilight 6:51 AM CST 5:37 PM CST
Nautical Twilight 6:19 AM CST 6:08 PM CST
Astronomical Twilight 5:48 AM CST 6:40 PM CST
Moon 11:50 PM CST (12/5) 11:52 AM CST (12/5)
Length of Visible Light 10h 45m
Length of Day
9h 48m
Waning Gibbous, 59% of the Moon is Illuminated
Dec 5
Waning Gibbous
Dec 6
Last Quarter
Dec 13
New
Dec 19
First Quarter
Dec 28
Full

Hourly Weather History & Observations

Time (CST) Temp. Windchill Dew Point Humidity Pressure Visibility Wind Dir Wind Speed Gust Speed Precip Events Conditions
12:53 AM 37.0 °F 34.5 °F 32.0 °F 82% 30.32 in 10.0 mi WNW 3.5 mph - N/A   Clear
1:53 AM 35.1 °F 32.2 °F 28.9 °F 78% 30.33 in 10.0 mi NNW 3.5 mph - N/A   Clear
2:53 AM 36.0 °F - 28.9 °F 76% 30.33 in 10.0 mi Calm Calm - N/A   Clear
3:53 AM 37.9 °F - 28.9 °F 70% 30.32 in 8.0 mi Calm Calm - N/A   Clear
4:53 AM 32.0 °F 28.7 °F 28.0 °F 85% 30.32 in 10.0 mi NW 3.5 mph - N/A   Clear
5:53 AM 32.0 °F 28.7 °F 28.0 °F 85% 30.32 in 10.0 mi NNW 3.5 mph - N/A   Clear
6:53 AM 33.1 °F - 28.0 °F 82% 30.33 in 10.0 mi Calm Calm - N/A   Clear
8:53 AM 39.0 °F - 32.0 °F 76% 30.33 in 9.0 mi Calm Calm - N/A   Clear
9:53 AM 46.9 °F - 36.0 °F 66% 30.32 in 10.0 mi Calm Calm - N/A   Clear
10:53 AM 55.0 °F - 34.0 °F 45% 30.30 in 10.0 mi SE 6.9 mph - N/A   Clear
11:53 AM 59.0 °F - 28.9 °F 32% 30.26 in 10.0 mi SSE 9.2 mph - N/A   Clear
12:53 PM 61.0 °F - 28.0 °F 29% 30.22 in 10.0 mi SE 12.7 mph - N/A   Clear
1:53 PM 62.1 °F - 27.0 °F 26% 30.19 in 10.0 mi SSE 11.5 mph - N/A   Clear
2:53 PM 61.0 °F - 26.1 °F 26% 30.16 in 10.0 mi SE 11.5 mph - N/A   Clear
3:53 PM 60.1 °F - 27.0 °F 28% 30.14 in 10.0 mi SE 6.9 mph - N/A   Clear
4:53 PM 57.0 °F - 28.0 °F 33% 30.11 in 10.0 mi SE 8.1 mph - N/A   Clear
5:53 PM 55.0 °F - 28.9 °F 37% 30.11 in 10.0 mi SSE 3.5 mph - N/A   Clear
6:53 PM 53.1 °F - 30.9 °F 43% 30.10 in 10.0 mi SE 4.6 mph - N/A   Clear
7:53 PM 53.1 °F - 30.9 °F 43% 30.07 in 10.0 mi SE 10.4 mph - N/A   Clear
8:53 PM 53.1 °F - 32.0 °F 45% 30.07 in 10.0 mi SSE 6.9 mph - N/A   Clear
9:53 PM 53.1 °F - 34.0 °F 48% 30.06 in 10.0 mi SSE 11.5 mph - N/A   Clear
10:53 PM 51.1 °F - 36.0 °F 56% 30.04 in 10.0 mi SSE 10.4 mph - N/A   Clear
11:53 PM 50.0 °F - 37.0 °F 61% 30.03 in 10.0 mi SSE 10.4 mph - N/A   Clear